Flag for U.S.A. Weather past 2 weeks in Osage City, Kansas, U.S.A.

Now
75 °F

Clear.


Feels Like: 76 °F
Forecast: 73 / 98 °F
Wind: 13 mph from South

Location: Forbes Field

Current Time: Jul 25, 2014 at 4:33:55 AM

Latest Report: Jul 25, 2014 at 3:53 AM


Visibility: 10 mi

Pressure: 29.83 "Hg

Humidity: 76%

Dew point: 67 °F

Location of Osage CityLocation

Historic Weather in Osage City — Graph

°F

Osage City temperature yesterday

Maximum temperature yesterday: 88 °F (at 3:53 PM)
Minimum temperature yesterday: 63 °F (at 5:53 AM)
Average temperature yesterday: 77 °F

Past Weeks' High & Low Weather Summary

 TemperatureHumidityPressure
High100 °F (Jul 22, 6:53 PM)94% (Jul 13, 4:53 AM)30.16 "Hg (Jul 13, 4:53 AM)
Low50 °F (Jul 16, 5:53 AM)36% (Jul 12, 4:53 PM)29.85 "Hg (Jul 20, 6:53 PM)
Average76 °F67%30.01 "Hg
* Reported Jul 10 2:53 AM — Jul 25 2:53 AM, Osage City, Weather by CustomWeather, © 2014

Note: Actual official high and low records may vary slightly from our data, if they occured in-between our weather recording intervals... More about our weather records

Advertising

Osage City weather history for previous 24 hours

 ConditionsComfort  
Time TempWeatherWind HumidityBarometerVisibility
2:53 AM
Jul 25
74 °FClear.14 mph69%29.86 "Hg10 mi
1:53 AM74 °FClear.12 mph64%29.88 "Hg10 mi
12:53 AM75 °FClear.14 mph55%29.90 "Hg10 mi
11:53 PM
Jul 24
75 °FClear.13 mph60%29.92 "Hg10 mi
10:53 PM75 °FClear.10 mph62%29.96 "Hg10 mi
9:53 PM76 °FClear.10 mph62%29.96 "Hg10 mi
8:53 PM79 °FSunny.9 mph56%29.95 "Hg10 mi
7:53 PM83 °FSunny.9 mph50%29.95 "Hg10 mi
6:53 PM87 °FSunny.10 mph42%29.96 "Hg10 mi
5:53 PM88 °FSunny.14 mph40%29.95 "Hg10 mi
4:53 PM88 °FSunny.15 mph39%29.96 "Hg10 mi
3:53 PM88 °FSunny.14 mph40%29.98 "Hg10 mi
2:53 PM86 °FSunny.13 mph42%30.03 "Hg10 mi
1:53 PM86 °FSunny.12 mph43%30.06 "Hg10 mi
12:53 PM83 °FSunny.10 mph48%30.08 "Hg10 mi
11:53 AM82 °FSunny.14 mph49%30.10 "Hg10 mi
10:53 AM80 °FSunny.12 mph52%30.10 "Hg10 mi
9:53 AM78 °FSunny.13 mph56%30.11 "Hg10 mi
8:53 AM73 °FSunny.7 mph69%30.11 "Hg10 mi
7:53 AM69 °FSunny.8 mph79%30.11 "Hg10 mi
6:53 AM65 °FClear.5 mph91%30.10 "Hg10 mi
5:53 AM63 °FClear.No wind90%30.10 "Hg10 mi
4:53 AM66 °FClear.No wind84%30.08 "Hg10 mi
Weather by CustomWeather, © 2014

See weather overviewHow to use our weather pages